Probability
0 0 0 0 0 0 0 0 0 0 0 0 0 0 0 0 0 0 0 0 0 0 0 0 0 0 0 0 0 0 0 0 0 0 0 0 0 0 0 0 0 0 0
0 0 0 0 0 0 0 0 0 0 0 0 0 0 0 0 0 0 0 0 0 0 0 0 0 0 0 0 0 0 0 0 0 0 0 0 0 0 0 0 0 0 0
0 0 0 0 0 0 0 0 0 0 0 0 0 0 0 0 0 0 0 0 0 0 0 0 0 0 0 0 0 0 0 0 0 0 0 0 0 0 0 0 0 0 0
0 0 0 0 0 0 0 0 0 0 0 0 0 0 0 0 0 0 0 0 0 0 0 0 0 0 0 0 0 0 0 0 0 0 0 0 0 0 0 0 0 0 0
0 0 0 0 0 0 0 0 0 0 0 0 0 0 0 0 0 0 0 0 0 0 0 0 0 0 0 0 0 0 0 0 0 0 0 0 0 0 0 0 0 0 0
0 0 0 0 0 0 0 0 0 0 0 0 0 0 0 0 0 0 0 0 0 0 0 0 0 0 0 0 0 0 0 0 0 0 0 0 0 0 0 0 0 0 0
0 0 0 0 0 0 0 0 0 0 0 0 0 0 0 0 0 0 0 0 0 0 0 0 0 0 0 0 0 0 0 0 0 0 0 0 0 0 0 0 0 0 0
0 0 0 0 0 0 0 0 0 0 0 0 0 0 0 0 0 0 0 0 0 0 0 0 0 0 0 0 0 0 0 0 0 0 0 0 0 0 0 0 0 0 0
0 0 0 0 0 0 0 0 0 0 0 0 0 0 0 0 0 0 0 0 0 0 0 0 0 0 0 0 0 0 0 0 0 0 0 0 0 0 0 0 0 0 0
0 0 0 0 0 0 0 0 0 0 0 0 0 0 0 0 0 0 0 0 0 0 0 0 0 0 0 0 0 0 0 0 0 0 0 0 0 0 0 0 0 0 0
0 0 0 0 0 0 0 0 0 0 0 0 0 0 0 0 0 0 0 0 0 0 0 0 0 0 0 0 0 0 0 0 0 0 0 0 0 0 0 0 0 0 0
0 0 0 0 0 0 0 0 0 0 0 0 0 0 0 0 0 0 0 0 0 0 0 0 0 0 0 0 0 0 0 0 0 0 0 0 0 0 0 0 0 0 0
0 0 0 0 0 0 0 0 0 0 0 0 0 0 0 0 0 0 0 0 0 0 0 0 0 0 0 0 0 0 0 0 0 0 0 0 0 0 0 0 0 0 0
0 0 0 0 0 0 0 0 0 0 0 0 0 0 0 0 0 0 0 0 0 0 0 0 0 0 0 0 0 0 0 0 0 0 0 0 0 0 0 0 0 0 0
0 0 0 0 0 0 0 0 0 0 0 0 0 0 0 0 0 0 0 0 0 0 0 0 0 0 0 0 0 0 0 0 0 0 0 0 0 0 0 0 0 0 0
0 0 0 0 0 0 0 0 0 0 0 0 0 0 0 0 0 0 0 0 0 0 0 0 0 0 0 0 0 0 0 0 0 0 0 0 0 0 0 0 0 0 0
0 0 0 0 0 0 0 0 0 0 0 0 0 0 0 0 0 0 0 0 0 0 0 0 0 0 0 0 0 0 0 0 0 0 0 0 0 0 0 0 0 0 0
0 0 0 0 0 0 0 0 0 0 0 0 0 0 0 0 0 0 0 0 0 0 0 0 0 0 0 0 0 0 0 0 0 0 0 0 0 0 0 0 0 0 0
0 0 0 0 0 0 0 0 0 0 0 0 0 0 0 0 0 0 0 0 0 0 0 0 0 0 0 0 0 0 0 0 0 0 0 0 0 0 0 0 0 0 0
0 0 0 0 0 0 0 0 0 0 0 0 0 0 0 0 0 0 0 0 0 0 0 0 0 0 0 0 0 0 0 0 0 0 0 0 0 0 0 0 0 0 0
0 0 0 0 0 0 0 0 0 0 0 0 0 0 0 0 0 0 0 0 0 0 0 0 0 0 0 0 0 0 0 0 0 0 0 0 0 0 0 0 0 0 0
0 0 0 0 0 0 0 0 0 0 0 0 0 0 0 0 0 0 0 0 0 0 0 0 0 0 0 0 0 0 0 0 0 0 0 0 0 0 0 0 0 0 0
0 0 0 0 0 0 0 0 0 0 0 0 0 0 0 0 0 0 0 0 0 0 0 0 0 0 0 0 0 0 0 0 0 0 0 0 0 0 0 0 0 0 0
0 0 0 0 0 0 0 0 0 0 0 0 0 0 0 0 0 0 0 0 0 0 0 0 0 0 0 0 0 0 0 0 0 0 0 0 0 0 0 0 0 0 0
0 0 0 0 0 0 0 0 0 0 0 0 0 0 0 0 0 0 0 0 0 0 0 0 0 0 0 0 0 0 0 0 0 0 0 0 0 0 0 0 0 0 0
0 0 0 0 0 0 0 0 0 0 0 0 0 0 0 0 0 0 0 0 0 0 0 0 0 0 0 0 0 0 0 0 0 0 0 0 0 0 0 0 0 0 0
Wind_Speed
2 2 2 2 2 2 2 2 1 2 2 2 3 3 3 3 3 3 3 3 3 3 3 3 4 4 3 3 3 3 3 3 6 7 5 6 7 7 8 6 6 7 7
1 2 2 1 1 1 2 2 1 2 2 2 2 2 3 3 3 2 3 3 3 4 4 4 4 4 4 3 3 3 3 4 5 9 7 6 7 7 7 8 8 8 7
1 1 1 1 1 1 1 2 2 1 1 2 2 2 2 2 2 2 2 3 3 4 4 4 4 4 4 3 4 4 4 5 4 6 8 6 6 6 8 8 8 7 8
1 1 1 1 1 1 1 2 2 1 1 1 2 2 2 2 2 3 3 3 3 3 3 4 4 4 4 4 4 4 5 5 5 5 7 7 6 6 6 8 9 7 8
1 1 0 1 1 1 2 2 2 2 1 1 2 2 2 2 2 3 3 3 3 3 3 3 3 4 5 5 5 5 5 5 5 5 6 7 7 7 7 7 9 9 8
1 0 1 1 1 1 1 1 1 1 2 2 2 2 2 2 4 4 4 3 3 3 3 3 3 3 5 7 8 9 8 7 7 6 6 8 9 8 8 8 9 10 9
1 1 1 1 1 1 1 1 1 1 1 2 2 1 2 3 5 5 5 3 3 3 3 4 4 4 4 4 7 9 8 9 10 7 7 8 9 9 9 10 9 10 10
1 1 1 1 1 1 1 1 1 1 1 1 1 2 2 3 4 4 5 3 2 3 4 4 4 4 5 6 6 6 6 6 8 6 6 8 8 8 8 9 10 10 10
0 0 1 1 1 1 1 1 1 1 1 1 1 2 2 3 4 5 5 2 2 3 4 4 4 4 8 10 7 7 7 7 8 10 12 12 14 14 12 7 7 7 9
1 1 0 0 0 1 1 1 1 1 1 2 2 2 2 3 4 5 5 2 3 3 3 4 5 7 10 11 6 5 7 8 7 8 9 10 9 10 12 7 6 7 8
1 0 0 0 1 1 0 0 1 1 1 1 2 2 2 2 4 5 5 2 3 3 3 4 4 9 10 11 9 5 8 9 7 7 7 7 6 6 6 6 6 6 7
1 1 0 0 0 0 0 0 0 0 0 1 2 2 2 2 3 4 5 5 5 3 3 3 4 9 10 10 8 9 12 10 5 5 6 6 6 7 7 7 8 7 7
2 1 1 1 0 0 1 1 0 0 1 1 1 2 2 2 3 5 5 6 6 3 3 6 8 10 9 7 9 11 8 5 5 5 6 6 6 7 7 7 7 7 8
2 2 2 1 1 0 0 1 1 1 1 1 1 2 2 2 2 2 2 3 4 4 3 5 7 8 7 7 6 6 4 4 4 5 6 6 6 6 6 6 7 8 8
3 2 2 1 1 1 1 1 2 2 2 2 2 2 2 3 3 4 3 2 2 2 3 2 3 3 3 4 4 4 4 4 4 5 5 6 7 7 7 6 6 6 7
3 3 2 2 2 1 1 1 2 2 2 3 3 3 2 4 5 5 5 6 6 5 2 2 3 3 3 4 4 5 4 4 5 5 5 6 6 7 7 7 6 6 8
4 3 2 2 2 2 2 2 2 2 3 4 4 5 4 5 5 6 6 6 5 3 1 2 3 3 4 4 4 4 5 5 5 5 5 6 6 6 7 7 7 7 8
4 4 3 3 3 3 3 2 2 2 2 3 4 6 6 6 6 6 5 4 3 2 1 2 3 3 3 4 4 4 5 5 4 5 5 6 6 6 6 7 7 8 8
4 3 3 3 2 2 2 2 2 3 3 3 2 3 4 5 5 5 3 0 2 3 3 3 3 3 3 4 4 4 4 5 5 5 5 6 5 5 6 7 7 9 8
4 4 4 3 3 2 2 3 3 3 3 3 3 3 2 1 2 2 2 2 2 3 3 4 4 4 3 4 4 4 4 5 5 5 5 5 5 5 6 7 7 7 7
4 4 4 3 3 3 3 3 3 3 3 4 4 3 3 2 3 3 3 3 4 4 4 4 4 4 4 4 4 4 5 5 5 5 5 5 5 5 5 5 6 6 7
4 4 4 4 4 4 4 4 4 4 4 5 4 3 4 2 3 3 4 4 4 4 4 4 4 4 4 4 4 5 5 6 6 5 5 5 5 5 5 5 6 6 6
4 4 4 4 4 4 4 4 4 4 4 4 4 3 3 3 4 4 5 5 4 4 4 4 4 5 4 4 4 5 6 6 6 5 5 5 5 5 5 5 7 7 7
5 5 5 4 4 4 4 4 4 4 4 4 4 4 4 4 4 5 5 4 4 4 4 4 5 6 7 6 5 5 6 6 6 5 6 6 6 5 5 5 6 7 7
5 5 5 5 4 4 4 4 4 4 4 4 4 4 4 4 5 5 5 4 5 5 5 5 5 5 7 8 8 7 9 10 8 6 5 5 6 6 6 6 6 7 7
5 5 5 4 4 4 4 4 4 4 4 4 4 4 4 4 5 5 4 4 4 5 5 5 6 7 8 8 9 10 10 10 9 8 5 4 5 6 6 5 6 6 7
Wind_Direction
56 52 44 36 31 21 23 12 2 355 347 346 346 352 356 0 357 2 360 354 350 341 336 334 328 326 324 328 331 329 322 311 293 301 309 314 315 316 319 318 315 315 314
66 60 46 36 36 25 11 358 358 356 347 338 345 352 349 352 352 356 349 346 342 336 335 336 330 332 334 330 332 324 315 310 299 301 306 314 313 313 314 315 318 316 312
75 67 49 29 22 18 357 350 349 351 354 343 341 341 338 340 343 346 346 342 343 335 334 335 333 335 329 331 328 319 315 314 308 299 302 309 309 314 315 314 312 309 311
82 71 52 12 2 0 353 353 340 342 348 333 329 327 325 333 340 342 344 341 333 331 334 335 333 331 325 326 320 317 317 313 307 301 302 308 308 312 315 317 316 317 313
89 73 15 3 9 5 356 346 338 341 331 320 327 327 325 323 334 342 341 329 322 324 331 332 331 328 328 326 322 321 320 312 310 308 306 308 311 322 322 317 312 314 309
114 85 12 19 7 351 335 332 333 329 324 328 327 322 326 329 337 336 335 327 328 327 328 326 323 324 330 325 319 317 315 311 310 308 306 306 309 315 315 314 313 316 313
104 62 28 14 347 324 326 330 319 314 323 321 321 329 324 324 324 332 345 344 334 328 323 320 321 327 325 316 316 320 320 313 306 303 300 300 305 310 311 309 309 307 301
72 28 8 350 323 328 330 309 311 321 323 321 329 333 337 334 333 335 341 342 331 329 323 317 318 326 324 322 322 321 318 317 312 310 299 301 303 306 304 302 303 300 294
105 333 330 318 308 320 313 318 338 3 354 336 340 350 336 325 327 330 337 336 331 326 322 329 330 323 324 326 327 323 322 320 324 320 314 312 313 317 319 316 314 312 306
228 243 274 256 233 247 267 321 2 0 343 346 340 339 325 317 322 328 333 333 326 324 327 333 333 326 327 330 330 325 319 321 329 327 324 323 322 322 326 322 313 309 307
195 156 145 198 220 233 253 11 21 12 10 346 325 325 322 317 322 326 330 334 322 325 325 328 328 330 332 336 336 328 320 328 328 324 321 322 325 327 327 324 315 303 299
141 144 175 229 226 180 142 35 37 78 316 304 317 317 319 320 328 327 329 326 330 325 318 323 328 333 335 336 337 332 333 333 326 324 324 325 327 327 325 321 315 307 295
145 173 202 193 180 160 165 187 176 176 225 279 292 301 312 321 323 326 324 324 325 326 320 324 327 328 330 332 331 333 338 336 331 327 323 320 319 315 316 317 317 312 303
177 192 189 185 178 146 173 191 192 212 229 252 268 282 298 311 311 314 315 318 321 316 321 326 326 328 329 331 333 334 335 331 325 317 315 313 316 319 320 321 321 324 319
187 189 185 179 179 192 205 213 219 224 216 229 240 249 272 287 295 309 317 308 306 308 340 342 333 334 337 331 328 327 328 328 324 318 317 317 320 322 320 323 321 322 318
190 191 188 185 190 198 213 275 276 256 275 266 267 266 275 290 310 306 307 315 320 330 354 327 318 319 316 316 318 320 322 320 318 316 313 314 316 317 318 321 323 322 318
197 196 191 190 194 200 207 221 263 284 276 282 281 282 283 296 303 306 310 315 322 335 328 300 298 300 302 305 306 307 309 310 311 309 309 311 313 315 317 319 323 323 319
199 199 196 199 201 203 210 220 229 244 271 283 284 284 290 299 306 310 318 326 321 316 272 273 279 286 291 295 298 300 302 307 307 306 305 307 310 311 313 315 317 317 316
197 200 201 204 203 207 211 218 227 236 249 269 294 297 294 301 309 319 336 280 268 276 275 274 275 281 287 288 289 290 291 293 297 300 299 302 305 306 306 308 311 313 314
203 202 196 200 201 206 212 218 226 234 243 253 261 269 286 296 281 291 270 249 254 262 264 267 270 272 276 279 285 290 293 291 292 292 293 295 297 299 300 304 308 311 310
196 197 194 196 204 209 212 219 224 228 236 246 253 258 256 240 250 255 256 252 251 254 259 262 265 269 270 273 276 279 281 284 286 286 287 290 294 296 298 299 301 302 306
189 192 196 205 209 213 218 221 224 230 236 245 258 264 257 248 251 256 257 257 254 253 254 257 262 261 259 260 265 272 276 279 283 287 288 291 292 293 297 298 301 305 306
190 194 199 206 210 215 220 224 227 232 239 243 247 250 246 243 249 254 258 261 262 262 260 257 263 268 266 263 257 255 262 267 272 276 283 288 290 290 293 294 298 301 303
191 196 202 207 209 215 222 228 229 233 237 243 245 245 247 248 252 257 261 264 266 265 261 259 259 265 270 274 270 266 266 272 273 265 262 269 276 282 285 289 291 293 295
191 196 202 207 211 217 223 229 232 233 236 241 244 247 250 252 257 261 263 264 266 268 267 265 264 266 267 270 273 273 274 278 277 269 259 259 267 272 277 280 285 292 295
194 198 203 208 213 217 221 229 235 237 240 244 246 248 249 252 257 261 264 264 269 271 271 268 265 269 271 270 272 278 280 280 278 271 257 256 263 270 275 277 283 287 291